﻿測定場所 (Monitoring sites),日付 (Measurement date),時間 (Measurement time),線量率 最大値 (max) μGy/h,線量率 最小値 (min) μGy/h,線量率 平均値 (average) μGy/h,
大田 (Ota),2013-03-31,23:01～24:00,0.0525,0.0466,0.0494,
大田 (Ota),2013-03-31,22:01～23:00,0.0532,0.0461,0.0494,
大田 (Ota),2013-03-31,21:01～22:00,0.0541,0.0457,0.0499,
大田 (Ota),2013-03-31,20:01～21:00,0.0539,0.0461,0.0499,
大田 (Ota),2013-03-31,19:01～20:00,0.0528,0.0451,0.0497,
大田 (Ota),2013-03-31,18:01～19:00,0.0520,0.0456,0.0488,
大田 (Ota),2013-03-31,17:01～18:00,0.0516,0.0452,0.0486,
大田 (Ota),2013-03-31,16:01～17:00,0.0521,0.0463,0.0486,
大田 (Ota),2013-03-31,15:01～16:00,0.0516,0.0466,0.0490,
大田 (Ota),2013-03-31,14:01～15:00,0.0526,0.0460,0.0493,
大田 (Ota),2013-03-31,13:01～14:00,0.0531,0.0443,0.0491,
大田 (Ota),2013-03-31,12:01～13:00,0.0530,0.0460,0.0491,
大田 (Ota),2013-03-31,11:01～12:00,0.0523,0.0465,0.0493,
大田 (Ota),2013-03-31,10:01～11:00,0.0531,0.0466,0.0495,
大田 (Ota),2013-03-31,09:01～10:00,0.0546,0.0466,0.0508,
大田 (Ota),2013-03-31,08:01～09:00,0.0547,0.0459,0.0500,
大田 (Ota),2013-03-31,07:01～08:00,0.0530,0.0445,0.0495,
大田 (Ota),2013-03-31,06:01～07:00,0.0584,0.0481,0.0518,
大田 (Ota),2013-03-31,05:01～06:00,0.0606,0.0503,0.0557,
大田 (Ota),2013-03-31,04:01～05:00,0.0578,0.0491,0.0530,
大田 (Ota),2013-03-31,03:01～04:00,0.0567,0.0487,0.0538,
大田 (Ota),2013-03-31,02:01～03:00,0.0556,0.0476,0.0520,
大田 (Ota),2013-03-31,01:01～02:00,0.0530,0.0465,0.0497,
大田 (Ota),2013-03-31,00:01～01:00,0.0531,0.0466,0.0495,
大田 (Ota),2013-03-30,23:01～24:00,0.0530,0.0462,0.0493,
大田 (Ota),2013-03-30,22:01～23:00,0.0523,0.0466,0.0493,
大田 (Ota),2013-03-30,21:01～22:00,0.0524,0.0460,0.0494,
大田 (Ota),2013-03-30,20:01～21:00,0.0541,0.0473,0.0499,
大田 (Ota),2013-03-30,19:01～20:00,0.0536,0.0474,0.0500,
大田 (Ota),2013-03-30,18:01～19:00,0.0528,0.0453,0.0494,
大田 (Ota),2013-03-30,17:01～18:00,0.0526,0.0451,0.0495,
大田 (Ota),2013-03-30,16:01～17:00,0.0521,0.0461,0.0493,
大田 (Ota),2013-03-30,15:01～16:00,0.0532,0.0459,0.0495,
大田 (Ota),2013-03-30,14:01～15:00,0.0527,0.0457,0.0495,
大田 (Ota),2013-03-30,13:01～14:00,0.0532,0.0474,0.0498,
大田 (Ota),2013-03-30,12:01～13:00,0.0534,0.0460,0.0499,
大田 (Ota),2013-03-30,11:01～12:00,0.0527,0.0464,0.0497,
大田 (Ota),2013-03-30,10:01～11:00,0.0534,0.0461,0.0501,
大田 (Ota),2013-03-30,09:01～10:00,0.0527,0.0468,0.0496,
大田 (Ota),2013-03-30,08:01～09:00,0.0521,0.0457,0.0492,
大田 (Ota),2013-03-30,07:01～08:00,0.0525,0.0457,0.0489,
大田 (Ota),2013-03-30,06:01～07:00,0.0542,0.0463,0.0493,
大田 (Ota),2013-03-30,05:01～06:00,0.0520,0.0466,0.0490,
大田 (Ota),2013-03-30,04:01～05:00,0.0536,0.0457,0.0492,
大田 (Ota),2013-03-30,03:01～04:00,0.0523,0.0461,0.0493,
大田 (Ota),2013-03-30,02:01～03:00,0.0543,0.0447,0.0494,
大田 (Ota),2013-03-30,01:01～02:00,0.0542,0.0456,0.0494,
大田 (Ota),2013-03-30,00:01～01:00,0.0538,0.0468,0.0497,
大田 (Ota),2013-03-29,23:01～24:00,0.0529,0.0461,0.0494,
大田 (Ota),2013-03-29,22:01～23:00,0.0520,0.0460,0.0493,
大田 (Ota),2013-03-29,21:01～22:00,0.0526,0.0461,0.0491,
大田 (Ota),2013-03-29,20:01～21:00,0.0525,0.0450,0.0495,
大田 (Ota),2013-03-29,19:01～20:00,0.0526,0.0447,0.0493,
大田 (Ota),2013-03-29,18:01～19:00,0.0528,0.0449,0.0492,
大田 (Ota),2013-03-29,17:01～18:00,0.0533,0.0449,0.0496,
大田 (Ota),2013-03-29,16:01～17:00,0.0530,0.0465,0.0492,
大田 (Ota),2013-03-29,15:01～16:00,0.0524,0.0463,0.0488,
大田 (Ota),2013-03-29,14:01～15:00,0.0521,0.0463,0.0492,
大田 (Ota),2013-03-29,13:01～14:00,0.0528,0.0466,0.0493,
大田 (Ota),2013-03-29,12:01～13:00,0.0518,0.0467,0.0492,
大田 (Ota),2013-03-29,11:01～12:00,0.0515,0.0467,0.0489,
大田 (Ota),2013-03-29,10:01～11:00,0.0530,0.0463,0.0496,
大田 (Ota),2013-03-29,09:01～10:00,0.0532,0.0458,0.0493,
大田 (Ota),2013-03-29,08:01～09:00,0.0531,0.0460,0.0494,
大田 (Ota),2013-03-29,07:01～08:00,0.0528,0.0455,0.0496,
大田 (Ota),2013-03-29,06:01～07:00,0.0526,0.0467,0.0497,
大田 (Ota),2013-03-29,05:01～06:00,0.0529,0.0469,0.0493,
大田 (Ota),2013-03-29,04:01～05:00,0.0525,0.0460,0.0494,
大田 (Ota),2013-03-29,03:01～04:00,0.0535,0.0468,0.0494,
大田 (Ota),2013-03-29,02:01～03:00,0.0524,0.0458,0.0489,
大田 (Ota),2013-03-29,01:01～02:00,0.0519,0.0459,0.0490,
大田 (Ota),2013-03-29,00:01～01:00,0.0535,0.0459,0.0493,
大田 (Ota),2013-03-28,23:01～24:00,0.0520,0.0460,0.0494,
大田 (Ota),2013-03-28,22:01～23:00,0.0535,0.0462,0.0493,
大田 (Ota),2013-03-28,21:01～22:00,0.0524,0.0454,0.0491,
大田 (Ota),2013-03-28,20:01～21:00,0.0534,0.0463,0.0491,
大田 (Ota),2013-03-28,19:01～20:00,0.0528,0.0457,0.0491,
大田 (Ota),2013-03-28,18:01～19:00,0.0530,0.0463,0.0488,
大田 (Ota),2013-03-28,17:01～18:00,0.0511,0.0456,0.0485,
大田 (Ota),2013-03-28,16:01～17:00,0.0528,0.0454,0.0493,
大田 (Ota),2013-03-28,15:01～16:00,0.0526,0.0455,0.0491,
大田 (Ota),2013-03-28,14:01～15:00,0.0525,0.0466,0.0495,
大田 (Ota),2013-03-28,13:01～14:00,0.0528,0.0465,0.0494,
大田 (Ota),2013-03-28,12:01～13:00,0.0523,0.0459,0.0492,
大田 (Ota),2013-03-28,11:01～12:00,0.0523,0.0467,0.0492,
大田 (Ota),2013-03-28,10:01～11:00,0.0540,0.0463,0.0496,
大田 (Ota),2013-03-28,09:01～10:00,0.0527,0.0462,0.0493,
大田 (Ota),2013-03-28,08:01～09:00,0.0519,0.0459,0.0489,
大田 (Ota),2013-03-28,07:01～08:00,0.0514,0.0461,0.0493,
大田 (Ota),2013-03-28,06:01～07:00,0.0532,0.0458,0.0489,
大田 (Ota),2013-03-28,05:01～06:00,0.0538,0.0450,0.0489,
大田 (Ota),2013-03-28,04:01～05:00,0.0526,0.0444,0.0487,
大田 (Ota),2013-03-28,03:01～04:00,0.0526,0.0459,0.0491,
大田 (Ota),2013-03-28,02:01～03:00,0.0525,0.0471,0.0493,
大田 (Ota),2013-03-28,01:01～02:00,0.0518,0.0458,0.0491,
大田 (Ota),2013-03-28,00:01～01:00,0.0524,0.0458,0.0490,
大田 (Ota),2013-03-27,23:01～24:00,0.0523,0.0445,0.0492,
大田 (Ota),2013-03-27,22:01～23:00,0.0518,0.0461,0.0489,
大田 (Ota),2013-03-27,21:01～22:00,0.0516,0.0459,0.0488,
大田 (Ota),2013-03-27,20:01～21:00,0.0517,0.0458,0.0487,
大田 (Ota),2013-03-27,19:01～20:00,0.0524,0.0468,0.0490,
大田 (Ota),2013-03-27,18:01～19:00,0.0518,0.0448,0.0489,
大田 (Ota),2013-03-27,17:01～18:00,0.0528,0.0459,0.0486,
大田 (Ota),2013-03-27,16:01～17:00,0.0514,0.0459,0.0487,
大田 (Ota),2013-03-27,15:01～16:00,0.0534,0.0434,0.0488,
大田 (Ota),2013-03-27,14:01～15:00,0.0533,0.0477,0.0506,
大田 (Ota),2013-03-27,13:01～14:00,0.0594,0.0494,0.0549,
大田 (Ota),2013-03-27,12:01～13:00,0.0598,0.0503,0.0545,
大田 (Ota),2013-03-27,11:01～12:00,0.0579,0.0480,0.0533,
大田 (Ota),2013-03-27,10:01～11:00,0.0607,0.0533,0.0578,
大田 (Ota),2013-03-27,09:01～10:00,0.0601,0.0507,0.0549,
大田 (Ota),2013-03-27,08:01～09:00,0.0556,0.0492,0.0525,
大田 (Ota),2013-03-27,07:01～08:00,0.0533,0.0483,0.0509,
大田 (Ota),2013-03-27,06:01～07:00,0.0534,0.0469,0.0504,
大田 (Ota),2013-03-27,05:01～06:00,0.0523,0.0449,0.0492,
大田 (Ota),2013-03-27,04:01～05:00,0.0527,0.0457,0.0497,
大田 (Ota),2013-03-27,03:01～04:00,0.0536,0.0456,0.0492,
大田 (Ota),2013-03-27,02:01～03:00,0.0529,0.0461,0.0493,
大田 (Ota),2013-03-27,01:01～02:00,0.0537,0.0463,0.0495,
大田 (Ota),2013-03-27,00:01～01:00,0.0536,0.0463,0.0495,
大田 (Ota),2013-03-26,23:01～24:00,0.0536,0.0469,0.0494,
大田 (Ota),2013-03-26,22:01～23:00,0.0524,0.0464,0.0493,
大田 (Ota),2013-03-26,21:01～22:00,0.0524,0.0465,0.0491,
大田 (Ota),2013-03-26,20:01～21:00,0.0520,0.0452,0.0494,
大田 (Ota),2013-03-26,19:01～20:00,0.0527,0.0462,0.0493,
大田 (Ota),2013-03-26,18:01～19:00,0.0544,0.0460,0.0494,
大田 (Ota),2013-03-26,17:01～18:00,0.0520,0.0463,0.0494,
大田 (Ota),2013-03-26,16:01～17:00,0.0524,0.0459,0.0496,
大田 (Ota),2013-03-26,15:01～16:00,0.0529,0.0461,0.0495,
大田 (Ota),2013-03-26,14:01～15:00,0.0524,0.0465,0.0493,
大田 (Ota),2013-03-26,13:01～14:00,0.0541,0.0467,0.0496,
大田 (Ota),2013-03-26,12:01～13:00,0.0535,0.0466,0.0498,
大田 (Ota),2013-03-26,11:01～12:00,0.0525,0.0464,0.0498,
大田 (Ota),2013-03-26,10:01～11:00,0.0527,0.0463,0.0494,
大田 (Ota),2013-03-26,09:01～10:00,0.0532,0.0464,0.0494,
大田 (Ota),2013-03-26,08:01～09:00,0.0514,0.0464,0.0489,
大田 (Ota),2013-03-26,07:01～08:00,0.0515,0.0461,0.0485,
大田 (Ota),2013-03-26,06:01～07:00,0.0507,0.0464,0.0487,
大田 (Ota),2013-03-26,05:01～06:00,0.0521,0.0450,0.0490,
大田 (Ota),2013-03-26,04:01～05:00,0.0517,0.0454,0.0486,
大田 (Ota),2013-03-26,03:01～04:00,0.0527,0.0453,0.0489,
大田 (Ota),2013-03-26,02:01～03:00,0.0520,0.0460,0.0492,
大田 (Ota),2013-03-26,01:01～02:00,0.0543,0.0461,0.0491,
大田 (Ota),2013-03-26,00:01～01:00,0.0515,0.0462,0.0491,
大田 (Ota),2013-03-25,23:01～24:00,0.0525,0.0466,0.0499,
大田 (Ota),2013-03-25,22:01～23:00,0.0532,0.0458,0.0491,
大田 (Ota),2013-03-25,21:01～22:00,0.0533,0.0448,0.0495,
大田 (Ota),2013-03-25,20:01～21:00,0.0528,0.0471,0.0498,
大田 (Ota),2013-03-25,19:01～20:00,0.0546,0.0472,0.0507,
大田 (Ota),2013-03-25,18:01～19:00,0.0533,0.0459,0.0491,
大田 (Ota),2013-03-25,17:01～18:00,0.0533,0.0445,0.0495,
大田 (Ota),2013-03-25,16:01～17:00,0.0528,0.0460,0.0496,
大田 (Ota),2013-03-25,15:01～16:00,0.0530,0.0451,0.0497,
大田 (Ota),2013-03-25,14:01～15:00,0.0551,0.0466,0.0511,
大田 (Ota),2013-03-25,13:01～14:00,0.0601,0.0508,0.0550,
大田 (Ota),2013-03-25,12:01～13:00,0.0623,0.0516,0.0568,
大田 (Ota),2013-03-25,11:01～12:00,0.0545,0.0465,0.0505,
大田 (Ota),2013-03-25,10:01～11:00,0.0541,0.0465,0.0507,
大田 (Ota),2013-03-25,09:01～10:00,0.0564,0.0486,0.0523,
大田 (Ota),2013-03-25,08:01～09:00,0.0589,0.0510,0.0543,
大田 (Ota),2013-03-25,07:01～08:00,0.0579,0.0498,0.0534,
大田 (Ota),2013-03-25,06:01～07:00,0.0588,0.0509,0.0542,
大田 (Ota),2013-03-25,05:01～06:00,0.0551,0.0477,0.0516,
大田 (Ota),2013-03-25,04:01～05:00,0.0558,0.0466,0.0501,
大田 (Ota),2013-03-25,03:01～04:00,0.0527,0.0472,0.0498,
大田 (Ota),2013-03-25,02:01～03:00,0.0526,0.0462,0.0496,
大田 (Ota),2013-03-25,01:01～02:00,0.0529,0.0462,0.0498,
大田 (Ota),2013-03-25,00:01～01:00,0.0529,0.0459,0.0494,
